TimePDT,TemperatureF,Dew PointF,Humidity,Sea Level PressureIn,VisibilityMPH,Wind Direction,Wind SpeedMPH,Gust SpeedMPH,PrecipitationIn,Events,Conditions,WindDirDegrees,DateUTC
12:53 AM,66.0,48.9,54,29.97,10.0,NNW,6.9,-,N/A,,Scattered Clouds,340,2013-08-22 07:53:00
1:53 AM,66.0,50.0,56,29.96,10.0,North,4.6,-,N/A,,Scattered Clouds,10,2013-08-22 08:53:00
2:53 AM,64.9,48.9,56,29.95,10.0,North,5.8,-,N/A,,Partly Cloudy,10,2013-08-22 09:53:00
3:53 AM,64.0,48.9,58,29.96,10.0,NNE,3.5,-,N/A,,Partly Cloudy,20,2013-08-22 10:53:00
4:53 AM,63.0,50.0,63,29.95,10.0,North,4.6,-,N/A,,Partly Cloudy,10,2013-08-22 11:53:00
5:53 AM,63.0,50.0,63,29.95,10.0,Calm,Calm,-,N/A,,Scattered Clouds,0,2013-08-22 12:53:00
6:53 AM,61.0,50.0,67,29.96,10.0,Calm,Calm,-,N/A,,Scattered Clouds,0,2013-08-22 13:53:00
7:53 AM,66.0,52.0,60,29.95,10.0,NE,8.1,-,N/A,,Scattered Clouds,40,2013-08-22 14:53:00
8:53 AM,71.1,53.1,53,29.95,10.0,Calm,Calm,-,N/A,,Partly Cloudy,0,2013-08-22 15:53:00
9:53 AM,71.1,53.1,53,29.95,10.0,Calm,Calm,-,N/A,,Scattered Clouds,0,2013-08-22 16:53:00
10:53 AM,73.9,53.1,48,29.94,10.0,West,5.8,-,N/A,,Mostly Cloudy,280,2013-08-22 17:53:00
11:53 AM,75.0,51.1,43,29.93,10.0,West,8.1,-,N/A,,Mostly Cloudy,280,2013-08-22 18:53:00
12:53 PM,81.0,52.0,36,29.91,10.0,Variable,3.5,-,N/A,,Mostly Cloudy,0,2013-08-22 19:53:00
1:53 PM,82.0,52.0,35,29.90,10.0,West,5.8,-,N/A,,Mostly Cloudy,280,2013-08-22 20:53:00
2:53 PM,82.0,52.0,35,29.89,10.0,WNW,10.4,-,N/A,,Mostly Cloudy,300,2013-08-22 21:53:00
3:53 PM,81.0,52.0,36,29.87,10.0,WNW,5.8,-,N/A,,Mostly Cloudy,290,2013-08-22 22:53:00
4:53 PM,81.0,52.0,36,29.85,10.0,WNW,4.6,-,N/A,,Overcast,290,2013-08-22 23:53:00
5:53 PM,82.0,52.0,35,29.84,10.0,West,4.6,-,N/A,,Mostly Cloudy,280,2013-08-23 00:53:00
6:53 PM,78.1,52.0,40,29.86,10.0,West,3.5,-,N/A,,Mostly Cloudy,270,2013-08-23 01:53:00
7:53 PM,73.9,52.0,46,29.86,10.0,WNW,5.8,-,N/A,,Mostly Cloudy,300,2013-08-23 02:53:00
8:53 PM,75.0,52.0,44,29.87,10.0,Calm,Calm,-,N/A,,Mostly Cloudy,0,2013-08-23 03:53:00
9:53 PM,75.9,52.0,43,29.87,10.0,SW,3.5,-,N/A,,Mostly Cloudy,220,2013-08-23 04:53:00
10:53 PM,71.1,53.1,53,29.87,10.0,South,5.8,-,N/A,,Mostly Cloudy,170,2013-08-23 05:53:00
11:53 PM,71.1,50.0,47,29.86,10.0,SW,4.6,-,N/A,,Mostly Cloudy,220,2013-08-23 06:53:00